Regional Weather Roundup
Issued by NWS

Home | Current Version | Previous Version | Text Only | Print | Product List | Glossary On
Versions: 1 2 3 4 5 6 7 8 9 10 11 12 13 14 15 16 17 18 19 20 21 22 23 24 25 26 27 28 29 30 31 32 33 34 35 36 37 38 39 40 41 42 43 44 45 46 47 48 49 50
000
ASUS43 KFSD 212202
RWRSD

WEATHER ROUNDUP FOR SOUTH DAKOTA
NATIONAL WEATHER SERVICE SIOUX FALLS SD
500 PM CDT SAT APR 21 2018

NOTE: "FAIR" INDICATES FEW OR NO CLOUDS BELOW 12,000 FEET WITH NO
SIGNIFICANT WEATHER AND/OR OBSTRUCTIONS TO VISIBILITY.


SDZ001>005-009-010-012>017-212300-
NORTHWEST AND NORTH CENTRAL SOUTH DAKOTA

CITY           SKY/WX    TMP DP  RH WIND       PRES   REMARKS
BUFFALO          N/A     60  35  39 S21       30.02F
FAITH            N/A     51  39  63 S16G25    30.16F
MOBRIDGE       MOSUNNY   56  34  43 S23G31    30.19F
$$

SDZ012>016-024>037-041>051-057-063-072>074-212300-
SOUTHWEST AND SOUTH CENTRAL SOUTH DAKOTA

CITY           SKY/WX    TMP DP  RH WIND       PRES   REMARKS
RAPID CTY ARPT MOSUNNY   53  39  59 S21G31    30.14F
PIERRE         CLOUDY    51  38  60 S16       30.24F
CUSTER         PTSUNNY   48  32  53 VRB7      30.12F
ELLSWORTH AFB  MOSUNNY  N/A N/A N/A S26       30.13F
PHILIP         CLOUDY    48  39  71 S16       30.22F
PINE RIDGE     CLOUDY    45  41  86 S8        30.20S
SPEARFISH      FAIR      61  36  39 VRB5G14   30.06F
WINNER         CLOUDY    47  37  68 SE9       30.26S
$$

SDZ004>011-016>023-039-040-212300-
NORTHEAST SOUTH DAKOTA

CITY           SKY/WX    TMP DP  RH WIND       PRES   REMARKS
ABERDEEN       MOSUNNY   59  34  39 S16G25    30.27F
WATERTOWN      MOSUNNY   53  35  50 S10       30.29F
BROOKINGS      CLOUDY    49  37  63 SE9       30.31F
SISSETON         N/A     57  38  48 S14       30.28F
$$

SDZ017-020-022-023-036>040-048>070-212300-
SOUTHEAST SOUTH DAKOTA

CITY           SKY/WX    TMP DP  RH WIND       PRES   REMARKS
SIOUX FALLS    CLOUDY    51  37  58 E10       30.29F
HURON          CLOUDY    50  37  61 CALM      30.29F
CHAMBERLAIN    CLOUDY    50  42  75 E5        30.26F
MITCHELL       CLOUDY    47  38  71 NE5       30.29F
YANKTON        CLOUDY    53  33  46 E10       30.27F
$$

ABBREVIATIONS USED IN REMARKS
   TC - TEMPERATURE IN CELSIUS
  WCI - WIND CHILL INDEX
   HX - HEAT INDEX
  VSB - VISIBILITY




USA.gov is the U.S. government's official web portal to all federal, state and local government web resources and services.